Regional Weather Roundup
Issued by NWS

Home | Current Version | Previous Version | Graphics & Text | Print | Product List | Glossary On
Versions: 1 2 3 4 5 6 7 8 9 10 11 12 13 14 15 16 17 18 19 20 21 22 23 24 25 26 27 28 29 30 31 32 33 34 35 36 37 38 39 40 41 42 43 44 45 46 47 48 49 50
000
ASUS45 KSLC 170310
RWRUT

UTAH REGIONAL WEATHER ROUNDUP
NATIONAL WEATHER SERVICE SALT LAKE CITY UT
900 PM MDT THU APR 16 2015

UTZ001>011-023>025-170400-

NORTHERN UTAH

CITY           SKY/WX    TMP DP  RH WIND       PRES   REMARKS
BRIGHAM CITY   PTCLDY    49  32  51 E17       30.13S
HILL AFB       PTCLDY    46  31  56 E25G31    30.12S
LOGAN          CLEAR     48  34  58 SE6       30.13R
OGDEN          PTCLDY    48  30  49 E13       30.13R
PROVO AIRPORT  NOT AVBL
SALT LAKE CITY PTCLDY    49  30  48 N16       30.11R
VERNAL         MOCLDY    41  27  57 N21       30.12R
WENDOVER       CLEAR     52  21  30 N3        30.13R
HEBER CITY     MOCLDY    37  28  70 NE5       30.10R WCI  34
WEST JORDAN    CLEAR     46  32  57 N10       30.12R

$$

UTZ012>022-026-027-170400-

SOUTHERN/CENTRAL UTAH

CITY           SKY/WX    TMP DP  RH WIND       PRES   REMARKS
BLANDING       CLEAR     33  18  55 W5        30.13R WCI  28
BRYCE CANYON   CLOUDY    28  25  88 NE8       30.08R WCI  20
CEDAR CITY     CLOUDY    40  31  70 NE6       30.07S
DELTA          CLOUDY    45  31  60 NE6       30.09R
HANKSVILLE     PTCLDY    36  32  87 E3        30.12R
MILFORD        CLOUDY    43  30  60 N10       30.07R
MOAB/CYNLANDS  MOCLDY    43  28  55 W6        30.05R
PRICE          NOT AVBL
ST GEORGE      MOCLDY    57  27  30 NE7       30.04R
KANAB          MOCLDY    39  32  75 E14       30.10R WCI  31

$$

REGIONAL REPORTS     COLORADO/ARIZONA

CITY           SKY/WX    TMP DP  RH WIND       PRES   REMARKS
CRAIG, CO      PTCLDY    36  31  82 MISG      30.06R
GRAND JUNCTION CLOUDY    42  37  82 N5        30.03R
RIFLE          CLOUDY    38  34  85 S6        30.05R WCI  33
MONTROSE       CLOUDY    41  30  65 W8        30.04R
CORTEZ         CLEAR     39   8  27 W10       30.04R WCI  32
PAGE, AZ       CLOUDY    45  29  53 VRB7      30.07R
GRAND CANYON   CLOUDY    32  17  54 CALM      30.07R
KINGMAN        CLEAR     53  17  24 N3        30.05R
FLAGSTAFF      MOCLDY    34  16  47 N7        30.08R WCI  28

$$

REGIONAL REPORTS    NEVADA/IDAHO/WYOMING

CITY           SKY/WX    TMP DP  RH WIND       PRES   REMARKS
LAS VEGAS, NV  PTCLDY    67  17  14 S7        29.95R
ELY            CLEAR     42  18  37 NW10      30.14R
ELKO           PTCLDY    53  23  31 NE8       30.14R
POCATELLO, ID  CLEAR     50  30  46 SW5       30.14R
BURLEY         CLEAR     44  29  55 W7        30.15R
EVANSTON, WY   PTCLDY    33  26  75 E13G21    30.19R WCI  24
ROCK SPRINGS   MOCLDY    31  26  82 NE24G32   30.19R WCI  17

$$


USA.gov is the U.S. government's official web portal to all federal, state and local government web resources and services.